Location: Chicago
(41.7813°N, 87.6051°W)
Time: 11:35:42
(UTC-05:00)

ISS - Visible Passes

Search period start: 30 March 2017 00:00
Search period end: 09 April 2017 00:00
Orbit: 399 x 409 km, 51.6° (Epoch: 31 March)

Date Brightness Start Highest point End Pass type
(mag) Time Alt. Az. Time Alt. Az. Time Alt. Az.
30 Mar -3.4 19:58:32 10° WSW 20:01:46 65° NNW 20:05:02 10° NE visible
30 Mar -1.2 21:36:21 10° WNW 21:38:41 18° NNW 21:38:41 18° NNW visible
31 Mar -1.6 20:43:23 10° WNW 20:46:05 23° NNW 20:48:41 11° NE visible
01 Apr -2.2 19:50:31 10° W 19:53:30 33° NNW 19:56:31 10° NE visible
01 Apr -1.2 21:28:41 10° NW 21:30:42 15° N 21:31:12 15° N visible
02 Apr -1.2 20:35:44 10° NW 20:37:59 17° NNW 20:40:15 10° NNE visible
02 Apr -0.4 22:13:16 10° NNW 22:13:36 11° NNW 22:13:36 11° NNW visible
03 Apr -1.5 19:42:43 10° WNW 19:45:18 21° NNW 19:47:54 10° NE visible
03 Apr -1.2 21:20:43 10° NW 21:22:40 15° N 21:23:17 14° NNE visible
04 Apr -1.1 20:27:57 10° NW 20:29:54 15° N 20:31:51 10° NNE visible
04 Apr -0.7 22:04:44 10° NW 22:05:33 14° NNW 22:05:33 14° NNW visible
05 Apr -1.5 21:12:20 10° NNW 21:14:33 17° N 21:15:08 16° NNE visible
06 Apr -1.3 20:19:48 10° NNW 20:21:47 15° N 20:23:46 10° NE visible
06 Apr -1.2 21:56:02 10° NW 21:57:20 19° NNW 21:57:20 19° NNW visible
07 Apr -2.0 21:03:40 10° NW 21:06:19 22° NNE 21:06:53 21° NE visible
08 Apr -1.6 20:11:16 10° NNW 20:13:35 18° NNE 20:15:54 10° ENE visible
08 Apr -1.8 21:47:19 10° NW 21:49:05 28° NW 21:49:05 28° NW visible
